Погода в Гнездилове

Россия / Орловская область     53°14′32″N   35°33′06″E
темп.,
°C
ветер,
м/с
пор.,
м/с
влажн.,
%
обл.,
%
осадки,
мм/ч
давл.,
гПа
погр.,
м
6 марта, сб
сб600:00−7з239296 0.0 101635
03:00−9з239348 0.0 101736
06:00−8сз379696 0.2 1017265
09:00−8сз378882 0.3 1019232
12:00−5сз47740 0.0 10191082
15:00−4зсз467127 0.2 10191284
18:00−6зсз367888 0.3 1019151
21:00−9з378645 0.3 1019121
7 марта, вс
вс700:00−10зюз49920 0.0 1018162
03:00−10юз6139016 0.0 1016332
06:00−8юз8168474 0.0 1012633
09:00−5юз10188287 0.0 1008882
12:00−3зюз111992100 0.3 10021207
15:000зюз111992100 1.3 10001435
18:00−4зсз61380100 2.8 1000875
21:00−6зюз6148783 2.8 1003614
8 марта, пн
пн800:00−8зюз6158124 0.0 1002419
03:00−6зюз7168222 0.0 1001897
06:00−10з6147667 0.1 1002632
09:00−9зсз6128762 0.1 1005751
12:00−6зсз6978100 0.1 1007948
15:00−5зсз6107358 0.1 10091242
18:00−7зсз4108691 0.1 1010432
21:00−9зсз369295 0.1 101299
9 марта, вт
вт900:00−11зсз239677 0.0 101338
03:00−12сз239881 0.1 101436
06:00−12ссз2296100 0.1 101566
09:00−11ссз2494100 0.1 1017269
12:00−8ссз3583100 0.1 1018796
15:00−8ссз3578100 0.2 1019955
18:00−10ссз3685100 0.1 1020160
21:00−13сз239267 0.1 102329
10 марта, ср
ср1000:00−15сз23951 0.0 102421
03:00−15зюз229422 0.0 102420
06:00−14юз3694100 0.0 1023154
09:00−11зюз5994100 1.3 1022462
12:00−6з5993100 1.5 1022704
15:00−4зсз5992100 2.2 1021812
18:00−10всв61095100 1.4 1022332
21:00−12всв4894100 1.8 1024311